Regional Weather Roundup
Issued by NWS

Home | Current Version | Previous Version | Graphics & Text | Print | Product List | Glossary On
Versions: 1 2 3 4 5 6 7 8 9 10 11 12 13 14 15 16 17 18 19 20 21 22 23 24 25 26 27 28 29 30 31 32 33 34 35 36 37 38 39 40 41 42 43 44 45 46 47 48 49 50
000
ASUS45 KPSR 032000
RWRAZ

ARIZONA REGIONAL HOURLY WEATHER ROUNDUP
NATIONAL WEATHER SERVICE PHOENIX AZ
100 PM MST SUN MAY 03 2015

NOTE: FAIR INDICATES FEW OR NO CLOUDS BELOW 12,000 FEET WITH NO
SIGNIFICANT WEATHER AND/OR OBSTRUCTIONS TO VISIBILITY.

AZZ001>003-036-032100-
NORTHWEST ARIZONA

CITY           SKY/WX    TMP DP  RH WIND       PRES   REMARKS
KINGMAN        MOSUNNY   80  31  16 SW16G23   29.91F
$$

AZZ004>008-015-016-018-032100-
NORTH CENTRAL ARIZONA

CITY           SKY/WX    TMP DP  RH WIND       PRES   REMARKS
GRAND CANYON   CLOUDY    64  34  32 S17G24    30.10F
WILLIAMS       MOSUNNY   66  32  28 SW14G23   30.14F
PRESCOTT       MOSUNNY   75  30  19 S14G31    30.01F
FLAGSTAFF      NOT AVBL
PAGE           PTSUNNY   76  37  24 SE20G25   29.97F
$$

AZZ009>014-017-032100-
NORTHEAST ARIZONA

CITY           SKY/WX    TMP DP  RH WIND       PRES   REMARKS
WINSLOW        NOT AVBL
SAINT JOHNS    MOSUNNY   75  28  17 MISG      30.01F
WINDOW ROCK    PTSUNNY   65  37  35 NE6       30.07F
$$

AZZ023-032100-
GREATER PHOENIX AREA

CITY           SKY/WX    TMP DP  RH WIND       PRES   REMARKS
PHOENIX        MOSUNNY   92  42  17 S13G22    29.81F
GLENDALE       MOSUNNY   90  43  19 E12G17    29.83F
LUKE AFB       MOSUNNY   90  45  20 VRB2      29.81F HAZE
DEER VALLEY    MOSUNNY   88  40  18 SW9       29.83F
SCOTTSDALE     MOSUNNY   87  41  19 SW5       29.85F
MESA-FALCON    MOSUNNY   90  41  18 MISG      29.83F
CHANDLER       MOSUNNY   90  41  18 S17       29.83F
$$

AZZ027-028-032100-
SOUTHWEST MARICOPA COUNTY AND PINAL COUNTY

CITY           SKY/WX    TMP DP  RH WIND       PRES   REMARKS
CASA GRANDE    SUNNY     90  41  18 S14G21    29.82F
$$

AZZ503-504-507>509-032100-
SOUTHEAST ARIZONA

CITY           SKY/WX    TMP DP  RH WIND       PRES   REMARKS
TUCSON         MOSUNNY   86  33  15 SW9       29.89F
NOGALES        PTSUNNY   80  36  20 W8        29.96F
SIERRA VISTA   MOSUNNY   77  30  18 S13G21    30.01F
SAFFORD        SUNNY     84  37  18 VRB5      29.88F
$$

AZZ020-021-025-026-031-032100-
SOUTHWEST ARIZONA

CITY           SKY/WX    TMP DP  RH WIND       PRES   REMARKS
YUMA           SUNNY     90  51  26 SW14      29.78F
$$

CAZ031-033-041-043-047-048-061-032100-
SOUTHERN CALIFORNIA

CITY           SKY/WX    TMP DP  RH WIND       PRES   REMARKS
DOWNTOWN L.A.  SUNNY     72  54  53 VRB3      29.92S
L.A. AIRPORT   MOSUNNY   65  53  65 W14G22    29.94S
SAN DIEGO      MOSUNNY   68  52  56 NW10      29.95S
BURBANK        SUNNY     74  51  44 S7        29.90F
ONTARIO        MOSUNNY   75  50  41 W12       29.91F
RIVERSIDE      SUNNY     75  51  43 VRB7      29.90F
PALM SPRINGS   SUNNY     92  31  11 CALM      29.79F
EL CENTRO NAS  SUNNY     89  46  22 S8        29.77F
IMPERIAL       SUNNY     89  47  23 SW9       29.75F
BLYTHE         SUNNY     91  49  23 S14G24    29.78F
$$

NVZ020-UTZ003-032100-
SOUTHERN NEVADA-UTAH

CITY           SKY/WX    TMP DP  RH WIND       PRES   REMARKS
LAS VEGAS      NOT AVBL
SALT LAKE CITY PTSUNNY   74  35  24 W6        29.88S
$$

NMZ009-TXZ055-032100-
NEW MEXICO-WEST TEXAS

CITY           SKY/WX    TMP DP  RH WIND       PRES   REMARKS
ALBUQUERQUE    MOSUNNY   75  32  20 NW5       30.00F
EL PASO        PTSUNNY   85  33  15 W12       29.93F
$$


........................KEY........................
SKY/WX - SKY CONDITION/WEATHER
TMP    - TEMPERATURE IN FAHRENHEIT
DP     - DEW POINT IN FAHRENHEIT
RH     - RELATIVE HUMIDITY IN PERCENT
WIND   - DIRECTION AND SPEED IN MILES PER HOUR (MPH)
VRB    - VARIABLE WIND DIRECTION
PRES   - MEAN SEA LEVEL PRESSURE IN INCHES OF MERCURY
         F - FALLING PRESSURE   R - RISING PRESSURE
         S - STEADY PRESSURE
VSB    - VISIBILITY IN MILES
HX     - HEAT INDEX IN FAHRENHEIT
WCI    - WIND CHILL INDEX IN FAHRENHEIT
TC     - TEMPERATURE IN CELSIUS WHICH IS ALSO KNOWN AS
         TEMPERATURE IN CENTIGRADE
AFB    - AIR FORCE BASE
         LUKE AFB IS LUKE AIR FORCE BASE
         DAVIS-MONTHAN IS DAVIS-MONTHAN AIR FORCE BASE
NAS    - NAVAL AIR STATION
         EL CENTRO NAS IS EL CENTRO NAVAL AIR STATION
N/A    - NOT AVAILABLE



USA.gov is the U.S. government's official web portal to all federal, state and local government web resources and services.